Location: Ermatingen
(47.6706°N, 9.0857°E)
Time: 05:38:19
(UTC+00:00)

CZ-4 R/B - Pass Details

Date: 18 September 2020
Orbit: 530 x 600 km, 97.7° (Epoch: 29 October)

Event Time Altitude Azimuth Distance (km) Brightness Sun altitude
Rises 18:44:03 0° 197° (SSW) 2,835 5.0 -13.3°
Reaches altitude 10° 18:46:32 10° 210° (SSW) 1,939 4.3 -13.7°
Maximum altitude 18:50:01 25° 266° (W) 1,236 3.9 -14.2°
Drops below altitude 10° 18:53:30 10° 322° (NW) 1,944 5.0 -14.8°
Sets 18:56:00 0° 336° (NNW) 2,844 5.7 -15.2°
